Weather in Kholmskaya

Russia / Krasnodar Krai     44°50′52″N   38°23′21″E
В апреле 2022 года жителям России запретили посещать сайт meteo.paraplan.net по решению Генеральной прокуратуры. Аудитория сайта уменьшилась в 10 раз. Владельцы сайта не видят смысла в поддержке погодного сервера в таких условиях. Сайт будет закрыт в октябре.
temp.,
°C
wind,
m/s
gust,
m/s
humid.,
%
clouds,
%
prec.,
mm/h
press.,
hPa
HPBL,
m
4 october, tue
tue400:00+13s11735 0.0 101310
03:00+12sw117399 0.0 101310
06:00+12sw1169100 0.0 101411
09:00+17nw11587 0.0 1014348
12:00+21nnw234662 0.0 10151644
15:00+21n224890 0.0 10151171
18:00+16nnw246557 0.1 101799
21:00+13w1175100 0.1 101911
5 october, wed
wed500:00+12nw1179100 0.0 102012
03:00+12nnw1180100 0.0 102012
06:00+12n0181100 0.1 102131
09:00+13n238590 0.2 1023226
12:00+15n227470 0.1 1024705
15:00+17n336274 0.1 1024997
18:00+13ene11725 0.0 102511
21:00+10nw22771 0.0 102623
6 october, thu
thu600:00+9wnw01775 0.0 102611
03:00+8nw11836 0.0 102612
06:00+7nw11886 0.0 102612
09:00+13nne23640 0.0 1025358
12:00+17nne34460 0.0 10241113
15:00+18ne44400 0.0 10241607
18:00+12ese22600 0.0 102529
21:00+10n11690 0.0 102511
7 october, fri
fri700:00+9ne11770 0.0 102616
03:00+8ne11820 0.0 102516
06:00+7ene11840 0.0 102517
09:00+13ene38660 0.0 1025433
12:00+18ene68470 0.0 10231041
15:00+20ene68440 0.0 10221258
18:00+15ne49600 0.0 1022368
21:00+13ene412810 0.0 1022475
8 october, sat
sat800:00+12ene412853 0.0 1021484
03:00+11ene38903 0.0 1021263
06:00+10ene39925 0.0 1020269
09:00+14ene596925 0.0 1019726
12:00+20ene685655 0.0 10181087
15:00+21ene785243 0.0 10161134
18:00+16ene6117121 0.0 1017677
21:00+13e2582100 0.0 1017186